Regional Weather Roundup
Issued by NWS Sioux Falls, SD

Home | Current Version | Previous Version | Graphics & Text | Print | Product List | Glossary Off
Versions: 1 2 3 4 5 6 7 8 9 10 11 12 13 14 15 16 17 18 19 20 21 22 23 24 25 26 27 28 29 30 31 32 33 34 35 36 37 38 39 40 41 42 43 44 45 46 47 48 49 50

000
ASUS43 KFSD 081310
RWRFSD

WEATHER ROUNDUP FOR SE SOUTH DAKOTA/SW MINNESOTA/NW IOWA
NATIONAL WEATHER SERVICE SIOUX FALLS SD
700 AM CST MON FEB 08 2016

NOTE: "FAIR" INDICATES FEW OR NO CLOUDS BELOW 12,000 FEET WITH NO
SIGNIFICANT WEATHER AND OR OBSTRUCTIONS TO VISIBILITY.


SDZ038>040-050-052>070-081400-
SOUTHEAST SOUTH DAKOTA

CITY           SKY/WX    TMP DP  RH WIND       PRES   REMARKS
BROOKINGS      LGT SNOW  17  12  80 N26G35    30.01S WCI  -2
CHAMBERLAIN    CLEAR     25  17  72 NW21G32   30.20S WCI  10
HURON          MOCLDY    24  16  71 N20G31    30.13R WCI  10
MADISON        LGT SNOW  18  18 100 N26G35    30.05R WCI  -1
MITCHELL       CLOUDY    26  18  71 NW24      30.14R WCI  11
SIOUX FALLS    LGT SNOW  20  14  77 N31G43    30.04R VSB 1   WCI   1
WINNER         FAIR      26  16  65 NW22G32   30.23R WCI  12
YANKTON        CLOUDY   N/A N/A N/A NW36G45   30.09S
$$

MNZ071-072-080-081-089-090-097-098-081400-
SOUTHWEST MINNESOTA

CITY           SKY/WX    TMP DP  RH WIND       PRES   REMARKS
FAIRMONT       CLOUDY   N/A N/A N/A NW29G36   29.88S
JACKSON        CLOUDY    14  10  85 NW30G36   29.91S WCI  -7
LUVERNE          N/A     19  14  79 N24G35    30.02R WCI   2
MARSHALL       LGT SNOW  14  10  85 N31G48    30.00R VSB 3/4 WCI  -7
MONTEVIDEO     LGT SNOW  12  10  92 N30G40    30.03R WCI  -9
PIPESTONE      CLEAR     18   9  68 N28G38    30.00R WCI  -1
REDWOOD FALLS  LGT SNOW  13   8  81 NW22G31   29.98R WCI  -6
TRACY          LGT SNOW  15  13  90 N31G40    29.99R VSB 3/4 WCI  -6
WINDOM         HVY SNOW  12  10  92 NW37G46   29.92R VSB 1/4 WCI -11
WORTHINGTON    CLOUDY   N/A N/A N/A NW32G41   29.96R VSB 3/4
$$

IAZ001>003-012>014-020>022-031-032-NEZ013-014-SDZ071-081400-
NORTHWEST IOWA

CITY           SKY/WX    TMP DP  RH WIND       PRES   REMARKS
CHEROKEE       LGT SNOW  18  15  88 N24G36    29.99S WCI   0
DENISON        LGT SNOW  19  18  93 N20G31    29.97R WCI   4
ESTHERVILLE    SNOW      13  10  88 N36G45    29.91S VSB 1/4 WCI -10
LE MARS        LGT SNOW  23  21  93 N24G33    30.04R WCI   7
ORANGE CITY      N/A     18  16  93 N22G31    30.00R WCI   0
SHELDON        LGT SNOW  16  14  93 N35G46    29.97S VSB 3/4 WCI  -6
SIOUX CITY     CLOUDY    26  16  65 N30G41    30.03S WCI  10
SPENCER        CLOUDY    15   8  73 NW40      29.95R BLWGSNOWWCI  -8
STORM LAKE     FLURRIES  18  14  86 N35       29.95R WCI  -3
$$

ABBREVIATIONS USED IN REMARKS
   TC - TEMPERATURE IN CELSIUS
  WCI - WIND CHILL INDEX
   HX - HEAT INDEX
  VSB - VISIBILITY




USA.gov is the U.S. government's official web portal to all federal, state and local government web resources and services.